Weather History for Fort Knox, KY

Change the Weather History Date:

Wednesday, May 22, 2013

  Actual Average Record
Temperature  
Mean Temperature 70 °F -  
Max Temperature 77 °F 73 °F 86 °F (2004)
Min Temperature 63 °F 54 °F 42 °F (1997)
Cooling Degree Days 5    
Growing Degree Days 20 (Base 50)    
Moisture  
Dew Point 63 °F    
Average Humidity 80    
Maximum Humidity 99    
Minimum Humidity 61    
Precipitation  
Precipitation 0.09 in - - ()
Sea Level Pressure  
Sea Level Pressure 29.82 in    
Wind  
Wind Speed 10 mph (SSW)    
Max Wind Speed 15 mph    
Max Gust Speed 24 mph    
Visibility 10 miles    
Events Rain    
Averages and records for this station are not official NWS values.
T = Trace of Precipitation, MM = Missing Value Source: NWS Daily Summary

Daily Weather History Graph

Daily Weather History Graph

Search for Another Location

Airport:

Trip Planner

Search our weather history database for the weather conditions in past years. The results will help you decide how hot, cold, wet, or windy it might be!

Date:

Astronomy

May. 22, 2013 Rise Set
Actual Time 6:28 AM EDT 8:53 PM EDT
Civil Twilight 5:58 AM EDT 9:23 PM EDT
Nautical Twilight 5:21 AM EDT 10:00 PM EDT
Astronomical Twilight 4:40 AM EDT 10:41 PM EDT
Moon 6:17 PM EDT (5/22) 4:29 AM EDT (5/22)
Length of Visible Light 15h 25m
Length of Day
14h 25m
Waxing Gibbous, 91% of the Moon is Illuminated
May 22
Waxing Gibbous
May 25
Full
May 31
Last Quarter
Jun 8
New
Jun 16
First Quarter

Hourly Weather History & Observations

Time (EDT) Temp. Dew Point Humidity Pressure Visibility Wind Dir Wind Speed Gust Speed Precip Events Conditions
12:58 AM 67.1 °F 62.6 °F 85% 29.84 in 10.0 mi South 12.7 mph - N/A   Partly Cloudy
1:58 AM 66.9 °F 62.4 °F 85% 29.82 in 10.0 mi South 9.2 mph - N/A   Mostly Cloudy
2:58 AM 66.0 °F 61.7 °F 86% 29.81 in 10.0 mi South 11.5 mph - N/A   Scattered Clouds
3:58 AM 64.6 °F 62.1 °F 92% 29.82 in 10.0 mi South 9.2 mph - N/A   Mostly Cloudy
4:58 AM 63.9 °F 62.1 °F 94% 29.81 in 10.0 mi South 6.9 mph - N/A   Scattered Clouds
5:58 AM 63.3 °F 62.1 °F 96% 29.82 in 10.0 mi South 9.2 mph - N/A   Partly Cloudy
6:58 AM 63.9 °F 61.5 °F 92% 29.81 in 10.0 mi South 5.8 mph - N/A   Mostly Cloudy
7:58 AM 66.7 °F 62.1 °F 85% 29.84 in 10.0 mi SSW 9.2 mph - N/A   Mostly Cloudy
8:58 AM 67.8 °F 62.2 °F 82% 29.83 in 10.0 mi South 11.5 mph - N/A   Mostly Cloudy
9:58 AM 70.7 °F 62.8 °F 76% 29.83 in 10.0 mi SSE 8.1 mph - N/A   Mostly Cloudy
10:33 AM 71.6 °F 62.6 °F 73% 29.84 in 10.0 mi SSW 11.5 mph 17.3 mph N/A   Mostly Cloudy
10:48 AM 73.4 °F 62.6 °F 69% 29.84 in 10.0 mi South 12.7 mph - N/A   Mostly Cloudy
10:58 AM 72.7 °F 61.9 °F 69% 29.84 in 10.0 mi SSW 11.5 mph - N/A   Mostly Cloudy
11:58 AM 75.7 °F 63.0 °F 64% 29.83 in 10.0 mi South 9.2 mph - N/A   Mostly Cloudy
12:58 PM 75.4 °F 63.0 °F 65% 29.83 in 10.0 mi SSW 11.5 mph 20.7 mph N/A   Overcast
1:58 PM 75.9 °F 63.9 °F 66% 29.83 in 10.0 mi SW 13.8 mph 18.4 mph N/A   Mostly Cloudy
2:58 PM 75.6 °F 62.8 °F 64% 29.83 in 10.0 mi South 12.7 mph - 0.00 in Rain Light Rain
3:14 PM 73.4 °F 64.4 °F 73% 29.82 in 10.0 mi SSW 10.4 mph - N/A   Overcast
3:48 PM 77.0 °F 62.6 °F 61% 29.81 in 10.0 mi SSW 15.0 mph 23.0 mph N/A Rain Light Rain
3:58 PM 75.4 °F 63.3 °F 66% 29.81 in 10.0 mi SSW 15.0 mph - 0.00 in Rain Light Rain
4:10 PM 71.6 °F 64.4 °F 78% 29.80 in 10.0 mi South 11.5 mph - N/A   Mostly Cloudy
4:58 PM 72.3 °F 65.8 °F 80% 29.79 in 10.0 mi South 8.1 mph - 0.00 in   Mostly Cloudy
5:34 PM 71.6 °F 66.2 °F 83% 29.79 in - West 9.2 mph - N/A Rain Light Rain Showers
5:46 PM 69.8 °F 66.2 °F 88% 29.79 in 7.0 mi WSW 10.4 mph 24.2 mph N/A   Mostly Cloudy
5:58 PM 69.8 °F 66.0 °F 88% 29.79 in 10.0 mi WSW 9.2 mph - 0.09 in   Mostly Cloudy
6:58 PM 69.8 °F 64.2 °F 82% 29.79 in 10.0 mi SW 5.8 mph - N/A   Mostly Cloudy
7:58 PM 71.2 °F 63.5 °F 76% 29.80 in 10.0 mi SSW 5.8 mph - N/A   Clear
8:58 PM 67.6 °F 63.1 °F 85% 29.81 in 10.0 mi South 4.6 mph - N/A   Clear
9:58 PM 64.9 °F 63.3 °F 94% 29.82 in 10.0 mi South 2.3 mph - N/A   Clear
10:58 PM 63.5 °F 63.1 °F 99% 29.83 in 10.0 mi SSW 4.6 mph - N/A   Clear
11:58 PM 63.1 °F 62.6 °F 98% 29.84 in 10.0 mi South 4.6 mph - N/A   Clear